Regional Weather Roundup
Issued by NWS Little Rock, AR

Home | Current Version | Previous Version | Graphics & Text | Print | Product List | Glossary On
Versions: 1 2 3 4 5 6 7 8 9 10 11 12 13 14 15 16 17 18 19 20 21 22 23 24 25 26 27 28 29 30 31 32 33 34 35 36 37 38 39 40 41 42 43 44 45 46 47 48 49 50
219
ASUS44 KLZK 301005
RWRLZK

WEATHER ROUNDUP FOR ARKANSAS
NATIONAL WEATHER SERVICE LITTLE ROCK AR
500 AM CDT TUE AUG 30 2016

NOTE: "FAIR" INDICATES FEW OR NO CLOUDS BELOW 12,000 FEET WITH NO
SIGNIFICANT WEATHER AND/OR OBSTRUCTIONS TO VISIBILITY.

ARZ001-003-010-029-301100-
NORTHWEST ARKANSAS

CITY           SKY/WX    TMP DP  RH WIND       PRES   REMARKS
FAYETTEVILLE   MOCLDY    69  69 100 CALM      30.13R FOG
FORT SMITH     CLEAR     73  70  90 CALM      30.06F
HARRISON       CLEAR     68  68 100 NW3       30.14S
BENTONVILLE    CLEAR     73  66  78 CALM      30.13S
ROGERS         CLEAR     72  69  90 E5        30.14S
SILOAM SPGS    CLEAR    N/A N/A N/A CALM      30.11S
HIGHFILL       CLEAR     71  70  96 N3        30.13S
$$

ARZ004-005-016-301100-
NORTH CENTRAL ARKANSAS

CITY           SKY/WX    TMP DP  RH WIND       PRES   REMARKS
BATESVILLE     CLEAR     73  72  94 CALM      30.09S
FLIPPIN        PTCLDY    72  66  83 CALM      30.09S
MTN HOME       CLEAR     71  71 100 CALM      30.11S FOG
$$

ARZ040-041-301100-
WEST CENTRAL ARKANSAS

CITY           SKY/WX    TMP DP  RH WIND       PRES   REMARKS
MENA           CLEAR     72  70  94 CALM      30.09S
$$

ARZ009-017-025-026-028-301100-
NORTHEAST ARKANSAS

CITY           SKY/WX    TMP DP  RH WIND       PRES   REMARKS
JONESBORO      CLEAR     77  74  90 NE5       30.06S
NEWPORT        CLEAR     74  74 100 N5        30.06F FOG
WALNUT RIDGE   CLEAR     75  72  88 N7        30.07S
BLYTHEVILLE    CLEAR     75  74  96 NE5       30.06F
$$

ARZ022-023-033-042-044-301100-
CENTRAL ARKANSAS

CITY           SKY/WX    TMP DP  RH WIND       PRES   REMARKS
LITTLE ROCK    CLEAR     79  73  82 N5        30.05R
N LITTLE ROCK    N/A     76  74  91 N5        30.02S
JACKSONVILLE   CLEAR     75  75  99 CALM      30.04F
SEARCY         CLEAR     77  75  93 N6        30.07S
HOT SPRINGS    CLEAR     76  74  93 CALM      30.06S
RUSSELLVILLE   CLEAR     72  72 100 CALM      30.06F FOG
$$

ARZ036-301100-
EAST ARKANSAS

CITY           SKY/WX    TMP DP  RH WIND       PRES   REMARKS
WEST MEMPHIS   CLEAR     75  74  96 CALM      30.03S FOG
$$

ARZ050-053-066-070-073-301100-
SOUTHWEST ARKANSAS

CITY           SKY/WX    TMP DP  RH WIND       PRES   REMARKS
ARKADELPHIA    FAIR      76  74  93 NE3       30.03F
TEXARKANA      PTCLDY    75  73  93 NE3       30.02F FOG
EL DORADO      CLEAR     73  72  96 CALM      30.01F
DE QUEEN       PTCLDY    73  73 100 CALM      30.02S FOG
$$

ARZ056-057-069-301100-
SOUTHEAST ARKANSAS

CITY           SKY/WX    TMP DP  RH WIND       PRES   REMARKS
PINE BLUFF     CLEAR     75  73  93 CALM      30.03S
STUTTGART      CLEAR     75  72  88 CALM      30.03F
MONTICELLO     CLEAR     77  73  87 CALM      30.02R

$$






USA.gov is the U.S. government's official web portal to all federal, state and local government web resources and services.